Regional Weather Roundup
Issued by NWS

Home | Current Version | Previous Version | Text Only | Print | Product List | Glossary Off
Versions: 1 2 3 4 5 6 7 8 9 10 11 12 13 14 15 16 17 18 19 20 21 22 23 24 25 26 27 28 29 30 31 32 33 34 35 36 37 38 39 40 41 42 43 44 45 46 47 48 49 50

000
ASUS43 KFSD 270310
RWRSD

WEATHER ROUNDUP FOR SOUTH DAKOTA
NATIONAL WEATHER SERVICE SIOUX FALLS SD
1000 PM CDT FRI AUG 26 2016

NOTE: "FAIR" INDICATES FEW OR NO CLOUDS BELOW 12,000 FEET WITH NO
SIGNIFICANT WEATHER AND/OR OBSTRUCTIONS TO VISIBILITY.


SDZ001>005-009-010-012>017-270400-
NORTHWEST AND NORTH CENTRAL SOUTH DAKOTA

CITY           SKY/WX    TMP DP  RH WIND       PRES   REMARKS
BUFFALO          N/A     56  49  77 SE7       29.97S
FAITH            N/A     59  58  96 SE13      30.00S
MOBRIDGE       CLOUDY    57  52  83 S7        30.01F
$$

SDZ012>016-024>037-041>051-057-063-072>074-270400-
SOUTHWEST AND SOUTH CENTRAL SOUTH DAKOTA

CITY           SKY/WX    TMP DP  RH WIND       PRES   REMARKS
RAPID CTY ARPT CLOUDY    57  55  93 N9        30.04F
PIERRE         PTCLDY    58  53  84 E6        30.03R
CUSTER         CLOUDY    52  47  83 N5        30.13R
ELLSWORTH AFB  CLOUDY    58  58 100 NW6       30.03
PHILIP         LGT RAIN  61  58  90 E6        30.05R
PINE RIDGE     CLEAR     60  55  83 CALM      30.02R
WINNER         FAIR      61  58  90 SE7       30.04R
$$

SDZ004>011-016>023-039-040-270400-
NORTHEAST SOUTH DAKOTA

CITY           SKY/WX    TMP DP  RH WIND       PRES   REMARKS
ABERDEEN       PTCLDY    59  56  89 E3        30.04F
WATERTOWN      CLOUDY    65  55  70 SE8       30.08R
BROOKINGS      MOCLDY    64  58  80 SE5       30.09R
$$

SDZ017-020-022-023-036>040-048>070-270400-
SOUTHEAST SOUTH DAKOTA

CITY           SKY/WX    TMP DP  RH WIND       PRES   REMARKS
SIOUX FALLS    CLOUDY    67  59  75 SE12      30.08R
HURON          CLOUDY    65  56  72 SE6       30.04R
CHAMBERLAIN    PTCLDY    63  56  80 E5        30.04R
MITCHELL       CLOUDY    68  58  70 SE10      30.05R
YANKTON        CLOUDY    64  59  82 E7        30.05R
$$

ABBREVIATIONS USED IN REMARKS
   TC - TEMPERATURE IN CELSIUS
  WCI - WIND CHILL INDEX
   HX - HEAT INDEX
  VSB - VISIBILITY





USA.gov is the U.S. government's official web portal to all federal, state and local government web resources and services.